Location: Bodham
(52.9000°N, 1.1667°E)
Time: 14:35:30
(UTC+00:00)

Cosmos 2112 Rocket - Pass Details

Date: 19 October 2025
Orbit: 753 x 782 km, 74.0° (Epoch: 13 November)

Event Time Altitude Azimuth Distance (km) Brightness Sun altitude
Rises 04:01:45 0° 336° (NNW) 3,251 7.2 -22.8°
Reaches altitude 10° 04:04:19 10° 345° (NNW) 2,316 6.5 -22.4°
Maximum altitude 04:09:11 38° 53° (NE) 1,164 5.4 -21.7°
Drops below altitude 10° 04:14:00 10° 121° (ESE) 2,286 7.1 -21.0°
Sets 04:16:31 0° 129° (SE) 3,204 7.8 -20.6°
